Location: Newark
(42.7133°N, 87.7910°W)
Time: 03:39:06
(UTC+00:00)

Tiros 1 - Pass Details

Date: 22 October 2019
Orbit: 630 x 664 km, 48.4° (Epoch: 18 November)

Event Time Altitude Azimuth Distance (km) Brightness Sun altitude
Exits shadow 09:11:55 27° 49° (NE) 1,285 9.1 -33.6°
Drops below altitude 10° 09:14:21 10° 67° (ENE) 2,084 10.6 -33.1°
Sets 09:16:48 0° 74° (ENE) 2,997 11.7 -32.7°
